Lexington Weather

Lexington, Massachusetts, USA

73°F
8/7/2020 11:25am 
  • Lexington Conditions: Clear
  • Temperature: 72.7°F / 22.6°CWarmer 2.5°F than last hour.
  • Dew Point: 63.5°FIncreased 1.3°Fsince last hour.
  • Relative Humidity: 73%Decreased 3.0% since last hour.
  • Wind: Calm, 10-min avg: Calm, gust: 2 mph
  • Barometer: 30.14 in Steady
  • Visibility: 10 miles
  • Rain Today: 0.00 in
  •   

Regional Weather Roundup
for Boston / Norton, MA

        
000
ASUS41 KBOX 021004
RWRBOX

REGIONAL WEATHER ROUNDUP
NATIONAL WEATHER SERVICE BOSTON/NORTON MA
600 AM EDT SUN AUG 02 2020

NOTE:  "FAIR" INDICATES FEW OR NO CLOUDS BELOW 12,000 FEET WITH NO 
SIGNIFICANT WEATHER AND/OR OBSTRUCTIONS TO VISIBILITY.

MAZALL-021100-
EASTERN MASSACHUSETTS
  
CITY           SKY/WX    TMP DP  RH WIND       PRES   REMARKS
BOSTON         MOCLDY    71  68  90 SW6       29.99R                  
BEVERLY        PTCLDY    69  66  90 CALM      29.98R                  
LAWRENCE       PTCLDY    70  67  90 CALM      30.00R                  
BEDFORD        PTCLDY    70  67  90 S3        29.98R                  
BLUE HILL      NOT AVBL                                               
NORWOOD        FOG       70  66  87 CALM      29.99R VSB 3/4          
MARSHFIELD     PTCLDY    72  72 100 SW3       29.99S                  
PLYMOUTH       CLEAR     68  68 100 CALM      30.00S                  
TAUNTON        PTCLDY    66  63  90 CALM      30.00R                  
NEW BEDFORD      N/A     65  65 100 CALM      30.00R FOG              
$$

MAZALL-021100-
CAPE COD AND THE ISLANDS
  
CITY           SKY/WX    TMP DP  RH WIND       PRES   REMARKS
FALMOUTH       CLEAR     66  66 100 CALM      30.01S                  
HYANNIS        CLEAR     69  67  93 CALM      30.00R                  
CHATHAM        CLEAR     71  68  90 CALM      30.02R                  
PROVINCETOWN   CLEAR     72  71  97 SW5       30.01R                  
NANTUCKET      CLEAR     66  64  93 SE5       30.02R FOG              
MARTHAS VNYRD  PTCLDY    60  59  96 CALM      30.01R                  
$$
 
MAZALL-021100-
CENTRAL AND WESTERN MASSACHUSETTS
  
CITY           SKY/WX    TMP DP  RH WIND       PRES   REMARKS
WORCESTER      CLOUDY    70  66  87 SW7       30.01S                  
FITCHBURG      CLOUDY    69  64  84 CALM      29.99R                  
ORANGE         CLOUDY    68  65  90 CALM      30.00R                  
SPRINGFIELD    CLOUDY    73  68  84 S3        29.97R                  
WESTFIELD      CLOUDY    72  66  81 CALM      29.97S                  
NORTH ADAMS    CLOUDY    70  62  76 VRB3      29.96S                  
PITTSFIELD     CLOUDY    67  64  90 N3        29.98S                  
$$
 
RIZALL-021100-
RHODE ISLAND
  
CITY           SKY/WX    TMP DP  RH WIND       PRES   REMARKS
PROVIDENCE     PTCLDY    70  69  97 S6        30.01R                  
NEWPORT        PTCLDY    71  68  90 CALM      30.01R                  
BLOCK ISLAND   CLOUDY    73  70  90 S7        30.01R                  
SMITHFIELD     PTCLDY    68  68 100 CALM      30.02R                  
WESTERLY       CLOUDY    69  67  93 CALM      30.00R                  
$$
 
CTZALL-021100-
CONNECTICUT
  
CITY           SKY/WX    TMP DP  RH WIND       PRES   REMARKS
BRADLEY INTL   MOCLDY    74  68  81 SE6       29.97R                  
HARTFORD       MOCLDY    75  69  81 SE3       29.97R                  
BRIDGEPORT     MOCLDY    75  71  87 SE9       29.97R                  
DANBURY        CLOUDY    73  70  90 SE3       29.99R                  
GROTON         CLOUDY    72  70  93 SE5       29.99R                  
NEW HAVEN      MOCLDY    77  72  84 SE8       29.97S                  
CHESTER        NOT AVBL                                               
MERIDEN        CLOUDY    72  68  87 SE3       29.98R                  
WILLIMANTIC    CLOUDY    70  67  90 CALM      30.00R                  
OXFORD         CLOUDY    71  70  96 SE7       30.00R                  
$$

MEZ002-015-021-024-NHZ003-005-008-011-012-014-VTZ005-008-021100-
NORTHERN NEW ENGLAND
  
CITY           SKY/WX    TMP DP  RH WIND       PRES   REMARKS
PORTLAND ME    PTCLDY    67  61  81 CALM      29.98S                  
BANGOR ME      MOCLDY    65  62  90 CALM      29.99R                  
CONCORD NH     MOCLDY    65  62  90 CALM      29.98S                  
MANCHESTER NH  MOCLDY    70  65  84 CALM      29.97R                  
NASHUA NH      PTCLDY    67  66  97 CALM      29.99R                  
PORTSMOUTH NH  MOCLDY    66  63  89 CALM      29.97R                  
JAFFREY NH     CLOUDY    66  63  90 CALM      30.01S                  
KEENE NH       CLOUDY    66  64  93 CALM      29.99R                  
BURLINGTON VT  MOCLDY    70  61  73 CALM      29.91F                  
MT. WASHINGTON NOT AVBL                                               
$$

NYZ052-076-021100-
EASTERN NEW YORK
  
CITY           SKY/WX    TMP DP  RH WIND       PRES   REMARKS
ALBANY         CLOUDY    73  62  68 SE5       29.92S                  
NEW YORK CITY  MOCLDY    77  71  82 S9        29.94S                  
$$
 
ANZALL-021100-
MARINE OBSERVATIONS
  
STATION/POSITION TIME  TEMP    WIND        PRES    VSBY  WAVE
                       AIR SEA DIR/SP/G                  HT/PER
                 (UTC) (F)     (DEG/KT/KT) (MB)    (MI)  (FT/S)
BOSTON BUOY      0950   71 72  180/  8/  8 1014.3S         1/10
BUZZARDS BAY     0900          170/  5/  6 1016.6F
NANTUCKET SOUND  0940      76  200/  6/  6 1015.5R
MASS BAY-STELLWA 0904   72     240/ 10/ 12 1013.2F  1 7/8  2/ 8
ISLE OF SHOALS   0900   71     200/ 10/ 10 1014.4F
S OF BLOCK IS    0926      72                N/A           4/11
$$

......................KEY.........................
  SKY/WX - SKY CONDITION/PRESENT WEATHER
  TMP    - TEMPERATURE IN FAHRENHEIT
  DWPT   - DEWPOINT IN FAHRENHEIT
  RH     - RELATIVE HUMIDITY IN PERCENT
  WIND   - DIRECTION AND SPEED IN MPH
  PRES   - MEAN SEA LEVEL PRESSURE IN INCHES OF HG
  WCI    - WIND CHILL INDEX
  VSB    - VISIBILITY IN MILES
  HX     - HEAT INDEX
  TC     - TEMPERATURE IN CELSIUS
  VRB    - VARIABLE WIND DIRECTION
  N/A    - NOT AVAILABLE
  
      

Other recent Regional Weather Roundups

Fri Aug 7, 11:04am

Fri Aug 7, 10:04am

Fri Aug 7, 9:04am

Fri Aug 7, 8:04am

Fri Aug 7, 7:04am

Fri Aug 7, 6:04am

Fri Aug 7, 5:04am

Fri Aug 7, 4:04am

Fri Aug 7, 3:04am

Fri Aug 7, 2:04am

Fri Aug 7, 1:05am

Fri Aug 7, 12:04am

Thu Aug 6, 11:04pm

Thu Aug 6, 10:04pm

Thu Aug 6, 9:04pm

Thu Aug 6, 8:04pm

Thu Aug 6, 7:04pm

Thu Aug 6, 6:04pm

Thu Aug 6, 5:04pm

Thu Aug 6, 4:05pm

Thu Aug 6, 3:04pm

Thu Aug 6, 2:05pm

Thu Aug 6, 1:04pm

Thu Aug 6, 12:04pm

Thu Aug 6, 11:04am

Thu Aug 6, 10:04am

Thu Aug 6, 9:04am

Thu Aug 6, 8:04am

Thu Aug 6, 7:04am

Thu Aug 6, 6:04am

Thu Aug 6, 5:04am

Thu Aug 6, 4:04am

Thu Aug 6, 3:04am

Thu Aug 6, 2:05am

Thu Aug 6, 1:04am

Thu Aug 6, 12:04am

Wed Aug 5, 11:04pm

Wed Aug 5, 10:04pm

Wed Aug 5, 9:04pm

Wed Aug 5, 8:05pm

Wed Aug 5, 7:04pm

Wed Aug 5, 6:04pm

Wed Aug 5, 5:04pm

Wed Aug 5, 4:05pm

Wed Aug 5, 3:04pm

Wed Aug 5, 2:04pm

Wed Aug 5, 1:04pm

Wed Aug 5, 12:04pm

Wed Aug 5, 11:04am

Wed Aug 5, 10:04am

Wed Aug 5, 9:04am

Wed Aug 5, 8:04am

Wed Aug 5, 7:04am

Wed Aug 5, 6:04am

Wed Aug 5, 5:04am

Wed Aug 5, 4:04am

Wed Aug 5, 3:04am

Wed Aug 5, 2:05am

Wed Aug 5, 1:04am

Wed Aug 5, 12:05am

Tue Aug 4, 11:05pm

Tue Aug 4, 10:05pm

Tue Aug 4, 9:04pm

Tue Aug 4, 8:04pm

Tue Aug 4, 7:05pm

Tue Aug 4, 6:05pm

Tue Aug 4, 5:05pm

Tue Aug 4, 4:05pm

Tue Aug 4, 3:04pm

Tue Aug 4, 2:05pm

Tue Aug 4, 1:04pm

Tue Aug 4, 12:05pm

Tue Aug 4, 11:04am

Tue Aug 4, 10:04am

Tue Aug 4, 9:04am

Tue Aug 4, 8:04am

Tue Aug 4, 7:04am

Tue Aug 4, 6:04am

Tue Aug 4, 5:04am

Tue Aug 4, 4:04am

Tue Aug 4, 3:04am

Tue Aug 4, 2:04am

Tue Aug 4, 1:04am

Tue Aug 4, 12:04am

Mon Aug 3, 11:04pm

Mon Aug 3, 10:04pm

Mon Aug 3, 9:04pm

Mon Aug 3, 8:05pm

Mon Aug 3, 7:04pm

Mon Aug 3, 6:04pm

Mon Aug 3, 5:04pm

Mon Aug 3, 4:05pm

Mon Aug 3, 3:04pm

Mon Aug 3, 2:04pm

Mon Aug 3, 1:04pm

Mon Aug 3, 12:05pm

Mon Aug 3, 11:04am

Mon Aug 3, 10:04am

Mon Aug 3, 9:05am

Mon Aug 3, 8:04am

Mon Aug 3, 7:04am

Mon Aug 3, 6:04am

Mon Aug 3, 5:04am

Mon Aug 3, 4:04am

Mon Aug 3, 3:04am

Mon Aug 3, 2:04am

Mon Aug 3, 1:04am

Mon Aug 3, 12:05am

Sun Aug 2, 11:04pm

Sun Aug 2, 10:04pm

Sun Aug 2, 9:04pm

Sun Aug 2, 8:04pm

Sun Aug 2, 7:04pm

Sun Aug 2, 6:04pm

Sun Aug 2, 5:04pm

Sun Aug 2, 4:05pm

Sun Aug 2, 3:04pm

Sun Aug 2, 2:05pm

Sun Aug 2, 1:04pm

Sun Aug 2, 12:04pm

Sun Aug 2, 11:04am

Sun Aug 2, 10:04am

Sun Aug 2, 9:05am

Sun Aug 2, 8:05am

Sun Aug 2, 7:04am

Sun Aug 2, 5:04am

Sun Aug 2, 4:05am

Sun Aug 2, 3:04am

Sun Aug 2, 2:04am

Sun Aug 2, 1:04am

Sun Aug 2, 12:05am

Sat Aug 1, 11:04pm

Sat Aug 1, 10:04pm

Sat Aug 1, 9:04pm

Sat Aug 1, 8:05pm

Sat Aug 1, 7:04pm

Sat Aug 1, 6:04pm

Sat Aug 1, 5:05pm

Sat Aug 1, 4:05pm

Sat Aug 1, 3:04pm

Sat Aug 1, 2:04pm

Sat Aug 1, 1:04pm

Sat Aug 1, 12:04pm

Sat Aug 1, 11:05am

Sat Aug 1, 10:05am

Sat Aug 1, 9:04am

Sat Aug 1, 8:04am

Sat Aug 1, 7:04am

Sat Aug 1, 6:04am

Sat Aug 1, 5:04am

Sat Aug 1, 4:05am

Sat Aug 1, 3:04am

Sat Aug 1, 2:04am

Sat Aug 1, 1:04am

Sat Aug 1, 12:05am

Fri Jul 31, 11:05pm

Fri Jul 31, 10:04pm

Fri Jul 31, 9:04pm

Fri Jul 31, 8:05pm

Fri Jul 31, 7:05pm

Fri Jul 31, 6:04pm

Fri Jul 31, 5:04pm

Fri Jul 31, 4:05pm

Fri Jul 31, 3:04pm

Fri Jul 31, 2:05pm

Fri Jul 31, 1:04pm

Fri Jul 31, 12:04pm

Meta data:

ID: 22112550-27ad-4d72-bf5d-09cd202d2504
Link: https://api.weather.gov/products/22112550-27ad-4d72-bf5d-09cd202d2504